Warning: Javascript must be enabled to use all the features on this page!


Page Loading - Please Wait...

Click to hideNews Bulletins

Peak Streamflow for the Nation

USGS 03234500 Scioto River at Higby OH

Ross County, Ohio
Hydrologic Unit Code 05060002
Latitude  39°12'44", Longitude  82°51'50" NAD27
Drainage area 5,131  square miles
Contributing drainage area 5,131  square miles
Gage datum 566.01 feet above NAVD88
Output formats
Table
Graph
Tab-separated file
peakfq (watstore) format
Reselect output format
Water
Year
Date Gage
Height
(feet)
Stream-
flow
(cfs)
1913 1913-03-26 31.60  
1931 1931-07-22 13.25 26,000
1932 1931-12-16 14.92 32,500
1933 1933-05-16 22.20 94,100
1934 1934-03-04 11.38 20,400
1935 1935-09-04 16.67 34,000
1936 1936-02-29 17.69 52,400
1937 1937-01-23 26.40 177,000
1938 1938-04-10 18.31 56,200
1939 1939-04-17 18.92 61,100
1940 1940-04-21 22.84 112,000
1941 1941-06-05 10.73 18,200
1942 1942-04-12 15.70 34,200
1943 1943-03-20 22.00 100,000
1944 1944-04-14 15.32 34,200
1945 1945-03-08 23.00 106,000
1946 1946-06-20 17.10 42,000
1947 1947-06-05 17.62 44,500
1948 1948-04-14 20.36 74,8005
1949 1949-01-28 18.13 48,0005
1950 1950-01-09 18.09 48,0005
1951 1951-02-23 17.94 46,6005
1952 1952-01-29 22.55 96,4005
1953 1953-05-22 11.82 21,7005
1954 1954-04-18 8.43 13,1005
1955 1955-03-23 16.36 37,0005
1956 1956-04-05 15.30 31,4005
1957 1957-04-06 19.82 66,8005
1958 1958-06-16 17.21 40,6005
1959 1959-01-23 26.40 160,0005
1960 1960-02-11 16.41 35,7005
1961 1961-05-09 18.68 51,8005
1962 1962-03-01 18.98 54,5005
1963 1963-03-06 23.55 105,0005
1964 1964-03-11 25.01 130,0005
1965 1965-04-12 16.14 31,8005
1966 1966-02-14 17.86 42,9005
1967 1966-12-11 17.19 38,0005
1968 1968-05-25 22.41 89,5005
1969 1969-02-02 16.74 33,5005
1970 1970-04-03 18.76 46,6005
1971 1971-02-23 18.29 42,8005
1972 1972-04-10 18.29 42,8005
1973 1972-12-09 16.21 31,3005
1974 1973-11-28 16.70 33,3006
1975 1975-02-26 19.63 58,1006
1976 1976-02-18 16.98 38,6006
1977 1977-04-05 12.64 22,4006
1978 1978-03-15 17.98 45,5006
1979 1979-02-26 19.50 53,3006
1980 1980-06-05 15.35 30,4006
1981 1981-06-07 15.17 31,0006
1982 1982-02-03 15.67 32,6006
1983 1983-05-04 18.79 47,3006
1984 1984-03-21 16.97 36,9006
1985 1985-02-26 15.96 33,6006
1986 1985-11-17 17.29 38,3006
1987 1987-04-08 13.68 27,3006
1988 1988-02-04 13.77 27,5006
1989 1989-05-27 15.69 32,6006
1990 1990-05-30 19.12 46,0006
1991 1991-01-02 18.50 42,7006
1992 1992-07-27 14.25 27,7006
1993 1993-03-05 14.99 29,5006
1994 1994-04-11 18.32 41,7006
1995 1995-01-16   33,0002,6
1996 1996-05-02 18.40 42,0006
1997 1997-03-02 19.54 48,3006
1998 1998-04-17 16.63 33,8006
1999 1999-01-24 14.11 26,4006
2000 2000-02-19 18.96 45,1006
2001 2001-05-19 19.12 46,0006
2002 2001-12-20 15.42 29,8006
2003 2003-05-11 15.77 33,0006
2004 2004-01-06 20.60 56,8006
2005 2005-01-07 22.04 72,5006
2006 2006-03-15 15.42 31,8006
2007 2007-03-26 16.94 36,8006
2008 2008-03-20 20.44 55,2006
2009 2009-02-12   25,3002,6
2010 2010-03-14 18.22 42,0006
2011 2011-05-04 18.86 44,7006
2012 2012-01-27 17.61 39,5006
2013 2013-03-20 11.38 20,4006
2014 2013-12-25 17.76 40,1006
2015 2015-04-11 15.57 32,6006
2016 2015-12-28 14.11 29,7006
2017 2017-03-02 18.00 39,5006
2018 2018-04-04 19.11 47,5006
2019 2019-02-08 19.72 50,6006
2020 2020-05-22 18.73 46,0006
?
  Peak Streamflow Qualification Codes.